| time (UTC) | temp F | wind direction | speed MPH | gust MPH | rain 1hr in | rain 24hr in | rain mn in | humidity % | barometer mb |
| 20260509042749 | 55 | 152 | 0.0 | 0.0 | 158.82 | 0.00 | 0.04 | 87 | 1010.1 |
| 20260509042248 | 55 | 256 | 1.0 | 0.0 | 158.82 | 0.00 | 0.04 | 87 | 1010.2 |
| 20260509041748 | 55 | 277 | 2.0 | 0.0 | 158.82 | 0.00 | 0.04 | 87 | 1010.4 |
| 20260509041249 | 55 | 242 | 2.0 | 0.0 | 158.82 | 0.00 | 0.04 | 87 | 1010.4 |
| 20260509040749 | 55 | 333 | 2.0 | 0.0 | 158.82 | 0.00 | 0.04 | 87 | 1010.5 |
| 20260509040248 | 55 | 131 | 0.0 | 0.0 | 158.82 | 0.00 | 0.04 | 87 | 1010.5 |
| 20260509035751 | 55 | 98 | 1.0 | 0.0 | 158.82 | 0.00 | 0.04 | 86 | 1010.6 |
| 20260509035248 | 56 | 294 | 2.0 | 0.0 | 158.82 | 0.00 | 0.04 | 86 | 1010.7 |
| 20260509034748 | 56 | 260 | 1.0 | 0.0 | 158.82 | 0.00 | 0.04 | 86 | 1010.8 |
| 20260509034249 | 56 | 215 | 2.0 | 0.0 | 158.81 | 0.00 | 0.03 | 86 | 1010.7 |
| 20260509033748 | 56 | 132 | 0.0 | 0.0 | 158.81 | 0.00 | 0.03 | 86 | 1010.8 |
| 20260509033248 | 56 | 201 | 0.0 | 0.0 | 158.81 | 0.00 | 0.03 | 86 | 1010.7 |
| 20260509032749 | 56 | 226 | 2.0 | 0.0 | 158.81 | 0.00 | 0.03 | 86 | 1010.9 |
| 20260509032249 | 56 | 297 | 2.0 | 0.0 | 158.80 | 0.00 | 0.02 | 86 | 1011.0 |
| 20260509031748 | 56 | 84 | 0.0 | 0.0 | 158.80 | 0.00 | 0.02 | 86 | 1011.1 |
| 20260509031249 | 56 | 84 | 0.0 | 0.0 | 158.80 | 0.00 | 0.02 | 86 | 1011.0 |
| 20260509030748 | 56 | 84 | 0.0 | 0.0 | 158.80 | 0.00 | 0.02 | 86 | 1011.0 |
| 20260509025749 | 56 | 84 | 0.0 | 0.0 | 158.80 | 0.00 | 0.02 | 86 | 1011.1 |
| 20260509025248 | 56 | 84 | 0.0 | 0.0 | 158.80 | 0.00 | 0.02 | 86 | 1010.9 |
| 20260509024748 | 56 | 70 | 0.0 | 0.0 | 158.80 | 0.00 | 0.02 | 86 | 1011.1 |
| 20260509024249 | 56 | 285 | 3.0 | 0.0 | 158.80 | 0.00 | 0.02 | 86 | 1011.2 |
| 20260509023749 | 56 | 195 | 2.0 | 0.0 | 158.80 | 0.00 | 0.02 | 86 | 1011.2 |
| 20260509023248 | 56 | 152 | 0.0 | 0.0 | 158.80 | 0.00 | 0.02 | 85 | 1011.3 |
| 20260509022749 | 56 | 152 | 0.0 | 0.0 | 158.80 | 0.00 | 0.02 | 85 | 1011.2 |
| 20260509022248 | 56 | 152 | 0.0 | 0.0 | 158.80 | 0.00 | 0.02 | 85 | 1011.3 |
| 20260509021748 | 56 | 152 | 0.0 | 0.0 | 158.79 | 0.00 | 0.01 | 85 | 1011.3 |
| 20260509021249 | 56 | 152 | 0.0 | 0.0 | 158.79 | 0.00 | 0.01 | 85 | 1011.2 |
| 20260509020748 | 57 | 152 | 0.0 | 0.0 | 158.79 | 0.00 | 0.01 | 85 | 1011.2 |
| 20260509020248 | 56 | 152 | 0.0 | 0.0 | 158.79 | 0.00 | 0.01 | 85 | 1011.2 |
| 20260509015749 | 57 | 152 | 0.0 | 0.0 | 158.79 | 0.00 | 0.01 | 84 | 1011.3 |
| 20260509015249 | 57 | 152 | 0.0 | 0.0 | 158.79 | 0.00 | 0.01 | 84 | 1011.2 |
| 20260509014748 | 57 | 152 | 0.0 | 0.0 | 158.79 | 0.00 | 0.01 | 84 | 1011.1 |
| 20260509014249 | 57 | 152 | 0.0 | 0.0 | 158.79 | 0.00 | 0.01 | 84 | 1011.2 |
| 20260509013748 | 57 | 152 | 0.0 | 0.0 | 158.79 | 0.00 | 0.01 | 84 | 1011.0 |
| 20260509013248 | 57 | 152 | 0.0 | 0.0 | 158.79 | 0.00 | 0.01 | 83 | 1011.0 |
| 20260509012749 | 57 | 152 | 0.0 | 0.0 | 158.79 | 0.00 | 0.01 | 83 | 1010.9 |
| 20260509012248 | 57 | 152 | 0.0 | 0.0 | 158.79 | 0.00 | 0.01 | 83 | 1010.9 |
| 20260509011748 | 57 | 152 | 0.0 | 0.0 | 158.79 | 0.00 | 0.01 | 82 | 1010.9 |
| 20260509011249 | 57 | 152 | 0.0 | 0.0 | 158.79 | 0.00 | 0.01 | 82 | 1011.0 |
| 20260509010748 | 58 | 152 | 0.0 | 0.0 | 158.79 | 0.00 | 0.01 | 82 | 1011.0 |
| 20260509010248 | 58 | 152 | 0.0 | 0.0 | 158.79 | 0.00 | 0.01 | 81 | 1010.9 |
| 20260509005749 | 58 | 152 | 0.0 | 0.0 | 158.79 | 0.00 | 0.01 | 81 | 1011.0 |
| 20260509005248 | 58 | 152 | 0.0 | 0.0 | 158.79 | 0.00 | 0.01 | 81 | 1011.0 |
| 20260509004806 | 58 | 152 | 0.0 | 0.0 | 158.79 | 0.00 | 0.01 | 80 | 1010.9 |
| 20260509004250 | 58 | 152 | 0.0 | 0.0 | 158.79 | 0.00 | 0.01 | 80 | 1011.1 |
| 20260509003748 | 58 | 152 | 0.0 | 0.0 | 158.79 | 0.00 | 0.01 | 80 | 1010.9 |
| 20260509003350 | 58 | 152 | 0.0 | 0.0 | 158.79 | 0.00 | 0.01 | 79 | 1010.8 |
| 20260509003248 | 58 | 152 | 0.0 | 0.0 | 158.79 | 0.00 | 0.01 | 79 | 1010.8 |
| 20260509002909 | 59 | 152 | 0.0 | 0.0 | 158.79 | 0.00 | 0.01 | 78 | 1010.7 |
| 20260509002749 | 58 | 152 | 0.0 | 0.0 | 158.79 | 0.00 | 0.01 | 79 | 1010.8 |
| 20260509002248 | 59 | 152 | 0.0 | 0.0 | 158.79 | 0.00 | 0.01 | 78 | 1010.7 |
| 20260509001748 | 59 | 152 | 0.0 | 0.0 | 158.79 | 0.00 | 0.01 | 77 | 1010.7 |
| 20260509001249 | 59 | 152 | 0.0 | 0.0 | 158.79 | 0.00 | 0.01 | 76 | 1010.6 |
| 20260509000748 | 59 | 152 | 0.0 | 0.0 | 158.78 | 0.00 | 0.00 | 75 | 1010.7 |
| 20260509000248 | 59 | 152 | 0.0 | 0.0 | 158.78 | 0.00 | 0.00 | 75 | 1010.6 |
| 20260508235749 | 59 | 152 | 0.0 | 0.0 | 158.78 | 0.00 | 0.00 | 74 | 1010.6 |
| 20260508235320 | 59 | 152 | 0.0 | 0.0 | 158.78 | 0.00 | 0.00 | 73 | 1010.5 |
| 20260508235248 | 59 | 152 | 0.0 | 0.0 | 158.78 | 0.00 | 0.00 | 73 | 1010.5 |
| 20260508234748 | 59 | 48 | 0.0 | 0.0 | 158.78 | 0.00 | 0.00 | 72 | 1010.4 |
| 20260508233748 | 60 | 28 | 0.0 | 0.0 | 158.78 | 0.00 | 0.00 | 70 | 1010.3 |
| 20260508233324 | 61 | 308 | 0.0 | 0.0 | 158.78 | 0.00 | 0.00 | 66 | 1010.4 |
| 20260508233248 | 60 | 353 | 0.0 | 0.0 | 158.78 | 0.00 | 0.00 | 70 | 1010.3 |
| 20260508232748 | 60 | 345 | 2.0 | 0.0 | 158.78 | 0.00 | 0.00 | 69 | 1010.3 |
| 20260508232248 | 60 | 7 | 0.0 | 0.0 | 158.78 | 0.00 | 0.00 | 68 | 1010.3 |
| 20260508231749 | 61 | 1 | 1.0 | 0.0 | 158.78 | 0.00 | 0.00 | 67 | 1010.4 |
| 20260508231248 | 61 | 308 | 0.0 | 0.0 | 158.78 | 0.00 | 0.00 | 66 | 1010.4 |
| 20260508230748 | 62 | 80 | 4.0 | 0.0 | 158.78 | 0.00 | 0.00 | 62 | 1010.5 |
| 20260508230248 | 62 | 274 | 6.0 | 0.0 | 158.78 | 0.00 | 0.00 | 57 | 1010.6 |
| 20260508225748 | 63 | 309 | 7.0 | 0.0 | 158.78 | 0.00 | 0.00 | 54 | 1010.6 |
| 20260508225441 | 63 | 250 | 1.0 | 0.0 | 158.78 | 0.00 | 0.00 | 53 | 1010.4 |
| 20260508225248 | 63 | 287 | 3.0 | 0.0 | 158.78 | 0.00 | 0.00 | 53 | 1010.6 |
| 20260508224748 | 63 | 250 | 1.0 | 0.0 | 158.78 | 0.00 | 0.00 | 53 | 1010.4 |
| 20260508224248 | 63 | 283 | 3.0 | 0.0 | 158.78 | 0.00 | 0.00 | 52 | 1010.3 |
| 20260508223829 | 64 | 293 | 6.0 | 0.0 | 158.78 | 0.00 | 0.00 | 51 | 1010.4 |
| 20260508223748 | 63 | 242 | 0.0 | 0.0 | 158.78 | 0.00 | 0.00 | 51 | 1010.4 |
| 20260508223248 | 64 | 293 | 6.0 | 0.0 | 158.78 | 0.00 | 0.00 | 51 | 1010.4 |
| 20260508222957 | 64 | 342 | 2.0 | 0.0 | 158.78 | 0.00 | 0.00 | 49 | 1010.4 |
| 20260508222748 | 64 | 333 | 4.0 | 0.0 | 158.78 | 0.00 | 0.00 | 50 | 1010.4 |
| 20260508222248 | 64 | 342 | 2.0 | 0.0 | 158.78 | 0.00 | 0.00 | 49 | 1010.4 |
| 20260508221749 | 65 | 6 | 3.0 | 0.0 | 158.78 | 0.00 | 0.00 | 48 | 1010.2 |
| 20260508221248 | 65 | 318 | 2.0 | 0.0 | 158.78 | 0.00 | 0.00 | 47 | 1010.3 |
| 20260508220748 | 65 | 291 | 2.0 | 0.0 | 158.78 | 0.00 | 0.00 | 46 | 1010.3 |
| 20260508220327 | 66 | 359 | 5.0 | 0.0 | 158.78 | 0.00 | 0.00 | 43 | 1010.1 |
| 20260508220248 | 65 | 293 | 5.0 | 0.0 | 158.78 | 0.00 | 0.00 | 44 | 1010.3 |
| 20260508215749 | 66 | 359 | 5.0 | 0.0 | 158.78 | 0.00 | 0.00 | 43 | 1010.1 |
| 20260508215310 | 66 | 266 | 3.0 | 0.0 | 158.78 | 0.00 | 0.00 | 43 | 1009.9 |
| 20260508215249 | 66 | 300 | 11.0 | 0.0 | 158.78 | 0.00 | 0.00 | 42 | 1010.0 |
| 20260508214749 | 66 | 266 | 3.0 | 0.0 | 158.78 | 0.00 | 0.00 | 43 | 1009.9 |
| 20260508214250 | 66 | 267 | 7.0 | 0.0 | 158.78 | 0.00 | 0.00 | 42 | 1010.0 |
| 20260508213906 | 67 | 273 | 5.0 | 0.0 | 158.78 | 0.00 | 0.00 | 43 | 1009.9 |
| 20260508213749 | 67 | 307 | 11.0 | 0.0 | 158.78 | 0.00 | 0.00 | 39 | 1009.9 |
| 20260508213546 | 67 | 262 | 7.0 | 0.0 | 158.78 | 0.00 | 0.00 | 41 | 1010.0 |
| 20260508212749 | 67 | 273 | 5.0 | 0.0 | 158.78 | 0.00 | 0.00 | 43 | 1009.9 |
| 20260508212248 | 67 | 262 | 7.0 | 0.0 | 158.78 | 0.00 | 0.00 | 41 | 1010.0 |
| 20260508211748 | 67 | 308 | 5.0 | 0.0 | 158.78 | 0.00 | 0.00 | 39 | 1009.9 |
| 20260508211536 | 67 | 298 | 6.0 | 0.0 | 158.78 | 0.00 | 0.00 | 38 | 1010.0 |
| 20260508210748 | 67 | 298 | 6.0 | 0.0 | 158.78 | 0.00 | 0.00 | 38 | 1010.0 |
| 20260508210248 | 67 | 255 | 15.0 | 0.0 | 158.78 | 0.00 | 0.00 | 41 | 1010.0 |
| 20260508205749 | 67 | 274 | 13.0 | 0.0 | 158.78 | 0.00 | 0.00 | 40 | 1010.0 |
| 20260508205249 | 67 | 219 | 11.0 | 0.0 | 158.78 | 0.00 | 0.00 | 43 | 1010.0 |
| 20260508204748 | 67 | 211 | 3.0 | 0.0 | 158.78 | 0.00 | 0.00 | 42 | 1010.0 |
| 20260508204251 | 67 | 295 | 8.0 | 0.0 | 158.78 | 0.00 | 0.00 | 41 | 1010.1 |
| 20260508203748 | 67 | 229 | 10.0 | 0.0 | 158.78 | 0.00 | 0.00 | 42 | 1010.1 |
| 20260508202748 | 66 | 245 | 4.0 | 0.0 | 158.78 | 0.00 | 0.00 | 43 | 1010.2 |
| 20260508202250 | 66 | 304 | 8.0 | 0.0 | 158.78 | 0.00 | 0.00 | 43 | 1010.4 |
| 20260508200748 | 66 | 255 | 7.0 | 0.0 | 158.78 | 0.00 | 0.00 | 43 | 1010.6 |
| 20260508200629 | 66 | 221 | 3.0 | 0.0 | 158.78 | 0.00 | 0.00 | 44 | 1010.7 |
| 20260508195748 | 66 | 221 | 3.0 | 0.0 | 158.78 | 0.00 | 0.00 | 44 | 1010.7 |
| 20260508195403 | 66 | 255 | 14.0 | 0.0 | 158.78 | 0.00 | 0.00 | 41 | 1010.9 |
| 20260508195248 | 66 | 319 | 6.0 | 0.0 | 158.78 | 0.00 | 0.00 | 43 | 1010.8 |
| 20260508194748 | 66 | 347 | 2.0 | 0.0 | 158.78 | 0.00 | 0.00 | 43 | 1010.8 |
| 20260508194248 | 66 | 255 | 14.0 | 0.0 | 158.78 | 0.00 | 0.00 | 41 | 1010.9 |
| 20260508194038 | 66 | 300 | 7.0 | 0.0 | 158.78 | 0.00 | 0.00 | 43 | 1011.0 |
| 20260508193748 | 66 | 300 | 7.0 | 0.0 | 158.78 | 0.00 | 0.00 | 43 | 1011.0 |
| 20260508193249 | 66 | 290 | 3.0 | 0.0 | 158.78 | 0.00 | 0.00 | 45 | 1010.9 |
| 20260508192750 | 66 | 108 | 3.0 | 0.0 | 158.78 | 0.00 | 0.00 | 46 | 1011.0 |
| 20260508190749 | 67 | 308 | 3.0 | 0.0 | 158.78 | 0.00 | 0.00 | 44 | 1011.3 |
| 20260508190249 | 67 | 281 | 3.0 | 0.0 | 158.78 | 0.00 | 0.00 | 44 | 1011.3 |
| 20260508185749 | 68 | 197 | 1.0 | 0.0 | 158.78 | 0.00 | 0.00 | 44 | 1011.3 |
| 20260508185250 | 68 | 211 | 2.0 | 0.0 | 158.78 | 0.00 | 0.00 | 43 | 1011.4 |
| 20260508184749 | 68 | 257 | 2.0 | 0.0 | 158.78 | 0.00 | 0.00 | 43 | 1011.4 |
| 20260508184250 | 69 | 325 | 3.0 | 0.0 | 158.78 | 0.00 | 0.00 | 43 | 1011.4 |
| 20260508183748 | 69 | 259 | 2.0 | 0.0 | 158.78 | 0.00 | 0.00 | 41 | 1011.4 |
| 20260508180749 | 67 | 338 | 2.0 | 0.0 | 158.78 | 0.00 | 0.00 | 47 | 1011.9 |
| 20260508180249 | 66 | 281 | 6.0 | 0.0 | 158.78 | 0.00 | 0.00 | 47 | 1012.2 |
| 20260508180212 | 64 | 87 | 0.0 | 0.0 | 158.78 | 0.00 | 0.00 | 50 | 1012.6 |
| 20260508175748 | 65 | 248 | 4.0 | 0.0 | 158.78 | 0.00 | 0.00 | 53 | 1012.3 |
| 20260508175248 | 64 | 15 | 0.0 | 0.0 | 158.78 | 0.00 | 0.00 | 52 | 1012.6 |
| 20260508174748 | 64 | 87 | 0.0 | 0.0 | 158.78 | 0.00 | 0.00 | 50 | 1012.6 |
| 20260508174248 | 64 | 14 | 1.0 | 0.0 | 158.78 | 0.00 | 0.00 | 49 | 1012.8 |
| 20260508173748 | 65 | 311 | 5.0 | 0.0 | 158.78 | 0.00 | 0.00 | 49 | 1012.9 |
| 20260508173249 | 65 | 346 | 2.0 | 0.0 | 158.78 | 0.00 | 0.00 | 50 | 1013.0 |
| 20260508173212 | 64 | 300 | 7.0 | 0.0 | 158.78 | 0.00 | 0.00 | 50 | 1013.3 |
| 20260508172248 | 64 | 300 | 7.0 | 0.0 | 158.78 | 0.00 | 0.00 | 50 | 1013.3 |
| 20260508171748 | 64 | 309 | 2.0 | 0.0 | 158.78 | 0.00 | 0.00 | 52 | 1013.3 |
| 20260508171248 | 64 | 31 | 3.0 | 0.0 | 158.78 | 0.00 | 0.00 | 51 | 1013.4 |
| 20260508170748 | 63 | 315 | 1.0 | 0.0 | 158.78 | 0.00 | 0.00 | 53 | 1013.5 |
| 20260508165248 | 62 | 295 | 3.0 | 0.0 | 158.78 | 0.00 | 0.00 | 51 | 1014.0 |
| 20260508165240 | 62 | 339 | 3.0 | 0.0 | 158.78 | 0.00 | 0.00 | 52 | 1013.9 |
| 20260508164748 | 62 | 339 | 3.0 | 0.0 | 158.78 | 0.00 | 0.00 | 52 | 1013.9 |
| 20260508164025 | 62 | 233 | 5.0 | 0.0 | 158.78 | 0.00 | 0.00 | 50 | 1013.9 |
| 20260508163749 | 62 | 233 | 5.0 | 0.0 | 158.78 | 0.00 | 0.00 | 50 | 1013.9 |
| 20260508163247 | 62 | 269 | 4.0 | 0.0 | 158.78 | 0.00 | 0.00 | 49 | 1013.9 |
| 20260508162811 | 62 | 326 | 4.0 | 0.0 | 158.78 | 0.00 | 0.00 | 50 | 1013.9 |
| 20260508162249 | 62 | 326 | 4.0 | 0.0 | 158.78 | 0.00 | 0.00 | 50 | 1013.9 |
| 20260508161748 | 62 | 350 | 6.0 | 0.0 | 158.78 | 0.00 | 0.00 | 49 | 1013.9 |
| 20260508161248 | 61 | 330 | 9.0 | 0.0 | 158.78 | 0.00 | 0.00 | 48 | 1014.0 |
| 20260508161209 | 61 | 249 | 3.0 | 0.0 | 158.78 | 0.00 | 0.00 | 51 | 1013.9 |
| 20260508160748 | 61 | 281 | 9.0 | 0.0 | 158.78 | 0.00 | 0.00 | 47 | 1013.9 |
| 20260508160248 | 61 | 249 | 3.0 | 0.0 | 158.78 | 0.00 | 0.00 | 51 | 1013.9 |
| 20260508155348 | 59 | 345 | 7.0 | 0.0 | 158.78 | 0.00 | 0.00 | 55 | 1014.1 |
| 20260508155248 | 59 | 345 | 7.0 | 0.0 | 158.78 | 0.00 | 0.00 | 55 | 1014.1 |
| 20260508154747 | 59 | 238 | 5.0 | 0.0 | 158.78 | 0.00 | 0.00 | 57 | 1014.2 |
| 20260508154248 | 58 | 304 | 5.0 | 0.0 | 158.78 | 0.00 | 0.00 | 56 | 1014.2 |
| 20260508153747 | 58 | 280 | 6.0 | 0.0 | 158.78 | 0.00 | 0.00 | 58 | 1014.2 |
| 20260508153247 | 58 | 278 | 3.0 | 0.0 | 158.78 | 0.00 | 0.00 | 58 | 1014.1 |
| 20260508152833 | 56 | 266 | 4.0 | 0.0 | 158.78 | 0.00 | 0.00 | 60 | 1014.1 |
| 20260508152748 | 57 | 274 | 4.0 | 0.0 | 158.78 | 0.00 | 0.00 | 59 | 1014.2 |
| 20260508152247 | 56 | 266 | 4.0 | 0.0 | 158.78 | 0.00 | 0.00 | 60 | 1014.1 |
| 20260508152135 | 55 | 295 | 3.0 | 0.0 | 158.78 | 0.00 | 0.00 | 62 | 1014.3 |
| 20260508151747 | 56 | 276 | 3.0 | 0.0 | 158.78 | 0.00 | 0.00 | 61 | 1014.2 |
| 20260508151248 | 55 | 280 | 6.0 | 0.0 | 158.78 | 0.00 | 0.00 | 62 | 1014.1 |
| 20260508150747 | 55 | 295 | 3.0 | 0.0 | 158.78 | 0.00 | 0.00 | 62 | 1014.3 |
| 20260508150247 | 55 | 246 | 5.0 | 0.0 | 158.78 | 0.00 | 0.00 | 62 | 1014.3 |
| 20260508145748 | 55 | 46 | 1.0 | 0.0 | 158.78 | 0.00 | 0.00 | 62 | 1014.4 |
| 20260508145247 | 54 | 252 | 3.0 | 0.0 | 158.78 | 0.00 | 0.00 | 62 | 1014.5 |
| 20260508145013 | 54 | 269 | 3.0 | 0.0 | 158.78 | 0.00 | 0.00 | 63 | 1014.4 |
| 20260508144747 | 54 | 215 | 4.0 | 0.0 | 158.78 | 0.00 | 0.00 | 62 | 1014.4 |
| 20260508144248 | 54 | 269 | 3.0 | 0.0 | 158.78 | 0.00 | 0.00 | 63 | 1014.4 |
| 20260508143248 | 54 | 270 | 2.0 | 0.0 | 158.78 | 0.00 | 0.00 | 64 | 1014.4 |
| 20260508142749 | 54 | 217 | 3.0 | 0.0 | 158.78 | 0.00 | 0.00 | 64 | 1014.4 |
| 20260508142247 | 54 | 233 | 3.0 | 0.0 | 158.78 | 0.00 | 0.00 | 64 | 1014.3 |
| 20260508141747 | 53 | 269 | 3.0 | 0.0 | 158.78 | 0.00 | 0.00 | 64 | 1014.5 |
| 20260508141248 | 53 | 253 | 1.0 | 0.0 | 158.78 | 0.00 | 0.00 | 63 | 1014.6 |
| 20260508140747 | 53 | 256 | 4.0 | 0.0 | 158.78 | 0.00 | 0.00 | 63 | 1014.6 |
| 20260508140247 | 53 | 325 | 3.0 | 0.0 | 158.78 | 0.00 | 0.00 | 63 | 1014.5 |
| 20260508135748 | 53 | 302 | 4.0 | 0.0 | 158.78 | 0.00 | 0.00 | 63 | 1014.5 |
| 20260508135247 | 53 | 86 | 1.0 | 0.0 | 158.78 | 0.00 | 0.00 | 63 | 1014.4 |
| 20260508134747 | 53 | 267 | 1.0 | 0.0 | 158.78 | 0.00 | 0.00 | 64 | 1014.5 |
| 20260508134248 | 53 | 302 | 4.0 | 0.0 | 158.78 | 0.00 | 0.00 | 63 | 1014.5 |
| 20260508133747 | 53 | 281 | 7.0 | 0.0 | 158.78 | 0.00 | 0.00 | 64 | 1014.5 |
| 20260508133247 | 53 | 270 | 6.0 | 0.0 | 158.78 | 0.00 | 0.00 | 65 | 1014.5 |
| 20260508132748 | 53 | 297 | 5.0 | 0.0 | 158.78 | 0.00 | 0.00 | 65 | 1014.4 |
| 20260508132247 | 53 | 245 | 5.0 | 0.0 | 158.78 | 0.00 | 0.00 | 66 | 1014.4 |
| 20260508131747 | 53 | 243 | 4.0 | 0.0 | 158.78 | 0.00 | 0.00 | 65 | 1014.4 |
| 20260508131248 | 52 | 263 | 4.0 | 0.0 | 158.78 | 0.00 | 0.00 | 65 | 1014.4 |
| 20260508130747 | 52 | 301 | 2.0 | 0.0 | 158.78 | 0.00 | 0.00 | 65 | 1014.4 |
| 20260508130247 | 52 | 141 | 0.0 | 0.0 | 158.78 | 0.00 | 0.00 | 66 | 1014.4 |
| 20260508125747 | 52 | 311 | 5.0 | 0.0 | 158.78 | 0.00 | 0.00 | 66 | 1014.3 |
| 20260508125247 | 52 | 274 | 3.0 | 0.0 | 158.78 | 0.00 | 0.00 | 66 | 1014.3 |
| 20260508124747 | 52 | 301 | 6.0 | 0.0 | 158.78 | 0.00 | 0.00 | 66 | 1014.3 |
| 20260508124249 | 52 | 146 | 5.0 | 0.0 | 158.78 | 0.00 | 0.00 | 67 | 1014.3 |
| 20260508123747 | 52 | 271 | 5.0 | 0.0 | 158.78 | 0.00 | 0.00 | 67 | 1014.4 |
| 20260508123247 | 51 | 304 | 10.0 | 0.0 | 158.78 | 0.00 | 0.00 | 67 | 1014.3 |
| 20260508122748 | 51 | 335 | 3.0 | 0.0 | 158.78 | 0.00 | 0.00 | 69 | 1014.3 |
| 20260508122247 | 51 | 263 | 3.0 | 0.0 | 158.78 | 0.00 | 0.00 | 69 | 1014.2 |
| 20260508121747 | 51 | 30 | 1.0 | 0.0 | 158.78 | 0.00 | 0.00 | 72 | 1014.2 |
| 20260508121247 | 50 | 302 | 5.0 | 0.0 | 158.78 | 0.00 | 0.00 | 71 | 1014.2 |
| 20260508120747 | 50 | 285 | 4.0 | 0.0 | 158.78 | 0.00 | 0.00 | 70 | 1014.2 |
| 20260508120247 | 50 | 274 | 3.0 | 0.0 | 158.78 | 0.00 | 0.00 | 70 | 1014.2 |
| 20260508115747 | 50 | 273 | 6.0 | 0.0 | 158.78 | 0.00 | 0.00 | 70 | 1014.2 |
| 20260508115247 | 50 | 207 | 2.0 | 0.0 | 158.78 | 0.00 | 0.00 | 69 | 1014.2 |
| 20260508114747 | 49 | 266 | 3.0 | 0.0 | 158.78 | 0.00 | 0.00 | 68 | 1014.1 |
| 20260508114247 | 49 | 315 | 3.0 | 0.0 | 158.78 | 0.00 | 0.00 | 69 | 1014.2 |
| 20260508113747 | 49 | 262 | 2.0 | 0.0 | 158.78 | 0.00 | 0.00 | 68 | 1014.0 |
| 20260508113247 | 49 | 250 | 4.0 | 0.0 | 158.78 | 0.00 | 0.00 | 69 | 1014.0 |
| 20260508112247 | 49 | 293 | 0.0 | 0.0 | 158.78 | 0.00 | 0.00 | 69 | 1013.9 |
| 20260508111747 | 48 | 255 | 0.0 | 0.0 | 158.78 | 0.00 | 0.00 | 70 | 1013.8 |
| 20260508110747 | 48 | 270 | 3.0 | 0.0 | 158.78 | 0.00 | 0.00 | 71 | 1013.9 |
| 20260508105247 | 47 | 293 | 6.0 | 0.0 | 158.78 | 0.00 | 0.00 | 71 | 1013.8 |
| 20260508104747 | 47 | 1 | 1.0 | 0.0 | 158.78 | 0.00 | 0.00 | 71 | 1013.8 |
| 20260508104247 | 47 | 225 | 0.0 | 0.0 | 158.78 | 0.00 | 0.00 | 71 | 1013.9 |
| 20260508103747 | 47 | 281 | 4.0 | 0.0 | 158.78 | 0.00 | 0.00 | 71 | 1013.8 |
| 20260508103247 | 47 | 290 | 4.0 | 0.0 | 158.78 | 0.00 | 0.00 | 71 | 1013.8 |
| 20260508102747 | 47 | 239 | 2.0 | 0.0 | 158.78 | 0.00 | 0.00 | 71 | 1013.7 |
| 20260508102247 | 47 | 302 | 1.0 | 0.0 | 158.78 | 0.00 | 0.00 | 71 | 1013.7 |
| 20260508101747 | 47 | 308 | 6.0 | 0.0 | 158.78 | 0.00 | 0.00 | 71 | 1013.6 |
| 20260508101247 | 47 | 263 | 4.0 | 0.0 | 158.78 | 0.00 | 0.00 | 72 | 1013.6 |
| 20260508100747 | 47 | 330 | 3.0 | 0.0 | 158.78 | 0.00 | 0.00 | 71 | 1013.5 |
| 20260508100247 | 47 | 259 | 0.0 | 0.0 | 158.78 | 0.00 | 0.00 | 72 | 1013.5 |
| 20260508095747 | 47 | 281 | 2.0 | 0.0 | 158.78 | 0.00 | 0.00 | 72 | 1013.5 |
| 20260508095247 | 47 | 166 | 1.0 | 0.0 | 158.78 | 0.00 | 0.00 | 73 | 1013.6 |
| 20260508094747 | 47 | 246 | 1.0 | 0.0 | 158.78 | 0.00 | 0.00 | 73 | 1013.5 |
| 20260508094247 | 47 | 236 | 0.0 | 0.0 | 158.78 | 0.00 | 0.00 | 73 | 1013.5 |
| 20260508093747 | 47 | 236 | 0.0 | 0.0 | 158.78 | 0.00 | 0.00 | 73 | 1013.5 |
| 20260508093247 | 47 | 236 | 0.0 | 0.0 | 158.78 | 0.00 | 0.00 | 74 | 1013.5 |
| 20260508092247 | 47 | 278 | 2.0 | 0.0 | 158.78 | 0.00 | 0.00 | 74 | 1013.6 |
| 20260508091747 | 47 | 270 | 4.0 | 0.0 | 158.78 | 0.00 | 0.00 | 75 | 1013.7 |
| 20260508090747 | 47 | 236 | 0.0 | 0.0 | 158.78 | 0.00 | 0.00 | 76 | 1013.8 |
| 20260508090247 | 46 | 287 | 0.0 | 0.0 | 158.78 | 0.00 | 0.00 | 77 | 1013.7 |
| 20260508085747 | 46 | 248 | 0.0 | 0.0 | 158.78 | 0.00 | 0.00 | 77 | 1013.7 |
| 20260508085247 | 46 | 330 | 0.0 | 0.0 | 158.78 | 0.00 | 0.00 | 77 | 1013.8 |
| 20260508084747 | 46 | 263 | 0.0 | 0.0 | 158.78 | 0.00 | 0.00 | 78 | 1013.8 |
| 20260508084247 | 46 | 150 | 0.0 | 0.0 | 158.78 | 0.00 | 0.00 | 79 | 1013.8 |
| 20260508083747 | 46 | 211 | 0.0 | 0.0 | 158.78 | 0.00 | 0.00 | 79 | 1013.8 |
| 20260508083249 | 46 | 167 | 0.0 | 0.0 | 158.78 | 0.00 | 0.00 | 80 | 1013.7 |
| 20260508082747 | 47 | 167 | 0.0 | 0.0 | 158.78 | 0.00 | 0.00 | 80 | 1013.7 |
| 20260508082247 | 47 | 167 | 0.0 | 0.0 | 158.78 | 0.00 | 0.00 | 80 | 1013.7 |
| 20260508081747 | 47 | 167 | 0.0 | 0.0 | 158.78 | 0.00 | 0.00 | 79 | 1013.7 |
| 20260508081247 | 47 | 160 | 1.0 | 0.0 | 158.78 | 0.00 | 0.00 | 79 | 1013.8 |
| 20260508080747 | 47 | 336 | 0.0 | 0.0 | 158.78 | 0.00 | 0.00 | 80 | 1013.7 |
| 20260508080247 | 47 | 336 | 0.0 | 0.0 | 158.78 | 0.00 | 0.00 | 80 | 1013.7 |
| 20260508075850 | 47 | 336 | 0.0 | 0.0 | 158.78 | 0.00 | 0.00 | 80 | 1013.7 |
| 20260508075747 | 47 | 336 | 0.0 | 0.0 | 158.78 | 0.00 | 0.00 | 80 | 1013.7 |
| 20260508075247 | 47 | 336 | 0.0 | 0.0 | 158.78 | 0.00 | 0.00 | 80 | 1013.8 |
| 20260508074747 | 48 | 336 | 0.0 | 0.0 | 158.78 | 0.00 | 0.00 | 80 | 1013.8 |
| 20260508074247 | 48 | 336 | 0.0 | 0.0 | 158.78 | 0.00 | 0.00 | 80 | 1013.8 |
| 20260508073247 | 48 | 203 | 0.0 | 0.0 | 158.78 | 0.00 | 0.00 | 80 | 1013.8 |
| 20260508072747 | 48 | 203 | 0.0 | 0.0 | 158.78 | 0.00 | 0.00 | 80 | 1013.8 |
| 20260508072247 | 48 | 203 | 0.0 | 0.0 | 158.78 | 0.00 | 0.00 | 81 | 1013.8 |
| 20260508071747 | 49 | 203 | 0.0 | 0.0 | 158.78 | 0.00 | 0.00 | 81 | 1013.9 |
| 20260508071247 | 49 | 203 | 0.0 | 0.0 | 158.78 | 0.00 | 0.00 | 81 | 1013.9 |
| 20260508070747 | 49 | 203 | 0.0 | 0.0 | 158.78 | 0.00 | 0.00 | 82 | 1014.1 |
| 20260508070247 | 49 | 203 | 0.0 | 0.0 | 158.78 | 0.00 | 0.00 | 82 | 1014.2 |
| 20260508065747 | 49 | 203 | 0.0 | 0.0 | 158.78 | 0.00 | 0.00 | 81 | 1014.2 |
| 20260508065247 | 49 | 198 | 0.0 | 0.0 | 158.78 | 0.00 | 0.00 | 81 | 1014.2 |
| 20260508064747 | 49 | 198 | 0.0 | 0.0 | 158.78 | 0.00 | 0.00 | 81 | 1014.1 |
| 20260508063747 | 49 | 198 | 0.0 | 0.0 | 158.78 | 0.00 | 0.00 | 80 | 1014.2 |
| 20260508063247 | 50 | 134 | 0.0 | 0.0 | 158.78 | 0.00 | 0.00 | 79 | 1014.3 |
| 20260508062747 | 50 | 134 | 0.0 | 0.0 | 158.78 | 0.00 | 0.00 | 79 | 1014.2 |
| 20260508062418 | 50 | 134 | 0.0 | 0.0 | 158.78 | 0.00 | 0.00 | 78 | 1014.3 |
| 20260508062247 | 50 | 134 | 0.0 | 0.0 | 158.78 | 0.00 | 0.00 | 78 | 1014.3 |
| 20260508061747 | 50 | 165 | 2.0 | 0.0 | 158.78 | 0.00 | 0.00 | 77 | 1014.4 |
| 20260508061247 | 50 | 62 | 0.0 | 0.0 | 158.78 | 0.00 | 0.00 | 77 | 1014.4 |
| 20260508060851 | 50 | 91 | 0.0 | 0.0 | 158.78 | 0.00 | 0.00 | 75 | 1014.7 |
| 20260508060747 | 50 | 300 | 0.0 | 0.0 | 158.78 | 0.00 | 0.00 | 76 | 1014.8 |
| 20260508060247 | 50 | 91 | 0.0 | 0.0 | 158.78 | 0.00 | 0.00 | 75 | 1014.7 |
| 20260508055747 | 50 | 252 | 4.0 | 0.0 | 158.78 | 0.00 | 0.00 | 75 | 1015.0 |
| 20260508055458 | 50 | 267 | 0.0 | 0.0 | 158.78 | 0.00 | 0.00 | 75 | 1015.1 |
| 20260508055246 | 50 | 267 | 0.0 | 0.0 | 158.78 | 0.00 | 0.00 | 75 | 1015.1 |
| 20260508054749 | 50 | 62 | 1.0 | 0.0 | 158.78 | 0.00 | 0.00 | 74 | 1015.2 |
| 20260508054247 | 50 | 27 | 7.0 | 0.0 | 158.78 | 0.00 | 0.00 | 73 | 1015.3 |
| 20260508053746 | 50 | 255 | 2.0 | 0.0 | 158.78 | 0.00 | 0.00 | 75 | 1015.5 |
| 20260508053247 | 50 | 179 | 0.0 | 0.0 | 158.78 | 0.00 | 0.00 | 77 | 1015.2 |
| 20260508052747 | 50 | 179 | 0.0 | 0.0 | 158.78 | 0.00 | 0.00 | 77 | 1014.9 |
| 20260508052246 | 50 | 179 | 0.0 | 0.0 | 158.78 | 0.00 | 0.00 | 77 | 1014.6 |
| 20260508051746 | 50 | 179 | 0.0 | 0.0 | 158.78 | 0.00 | 0.00 | 77 | 1014.4 |
| 20260508051247 | 50 | 179 | 0.0 | 0.0 | 158.78 | 0.00 | 0.00 | 76 | 1014.4 |
| 20260508050746 | 50 | 179 | 0.0 | 0.0 | 158.78 | 0.00 | 0.00 | 76 | 1014.3 |
| 20260508050246 | 50 | 179 | 0.0 | 0.0 | 158.78 | 0.00 | 0.00 | 76 | 1014.3 |
| 20260508045747 | 50 | 179 | 0.0 | 0.0 | 158.78 | 0.00 | 0.00 | 76 | 1014.4 |
| 20260508045246 | 50 | 179 | 0.0 | 0.0 | 158.78 | 0.00 | 0.00 | 77 | 1014.4 |
| 20260508044746 | 50 | 179 | 0.0 | 0.0 | 158.78 | 0.00 | 0.00 | 76 | 1014.4 |
| 20260508044247 | 50 | 179 | 0.0 | 0.0 | 158.78 | 0.00 | 0.00 | 76 | 1014.4 |
| 20260508043746 | 50 | 179 | 0.0 | 0.0 | 158.78 | 0.00 | 0.00 | 76 | 1014.3 |
| 20260508043246 | 50 | 179 | 0.0 | 0.0 | 158.78 | 0.00 | 0.00 | 75 | 1014.3 |